"Pseudo-MPEC" for P115zsW

Created 2020 Sep 19 0:07:34 UT using Find_Orb

Click here for an explanation of pseudo-MPECs

 
 Astrometry: 
     P115zsW  C2020 09 127hu%XZ:@jjQjk=SBb,N;7%W.sh@qAstrometryW@.EpgLNH@nldyF51
     P115zsW  C2020 09 127Vredacted;jRXPMA`*PYrJPOE^O;Ui(u7t`6ep-0Hclicke`(9(F51
     P115zsW  C2020 09 12hw2p6Ry[k(vq]?y3VMMG9CTIEsc'fEJd1L4H$g)opZfSy?f0m9W`F51
     P115zsW  C2020 09 146e/[^L=%rgC]91+qxigHI-MB2t6CZ.CGoYAFI%9Z00XSQ[9]%fY7F51
     P115zsW  C2020 09 14:I5NPCqlD@%Jb%sAS+(f_4GaM^@mq2-uG5Kj,qiLv9h!g/stoU:TF51
     P115zsW  C2020 09 14i;oy6cKHJFo_K9kB(rrv:Mc$]sUxME9v;m2YrZ)OiCC4?K`7G!0%F51
     P115zsW  C2020 09 14HRsFYr9Uh,hG$*v,s?Ob^HOImf(e44_4m1NIy4kmm+CyXcN@!)C+F51
     P115zsW  C2020 09 18_FxKO:=here#(1hV4forhE%Blr'5L`RTZT]#explanation_vJ7HF51
     P115zsW  C2020 09 18SUp2D[!UoCt?FGG[sa4MABey'aIrcV(Yn$boYWl3R2YS3nt(SoJrF51
     P115zsW  C2020 09 18n+4qXQM:1T.5p$HMJ5Y\n2Ib8CEF9Ira/,Yg8`'I:58dm:8rOq.CF51

Station data:
(F51) Pan-STARRS 1, Haleakala  (N20.707235 W156.255910)  US/Hawaii.
   Observers N. Primak, A. Schultz, S. Watters, J. Thiel, T. Goggia. Measurer
   PS1 Science Consortium. 1.8-m Ritchey-Chrétien + CCD.

Orbital elements:  P115zsW
   Perihelion 2021 Aug 6.155640 +/- 3.32 TT =  3:44:07 (JD 2459432.655640)
Epoch 2020 Sep 18.0 TT = JDT 2459110.5   Earth MOID: 0.7331   Ma: 0.0983
M 234.92334017 +/- 1.2              (J2000 ecliptic)          AutoNEOCP
n   0.38824917 +/- 0.00113          Peri.  112.36459 +/- 1.1
a   1.86092566 +/- 0.00361          Node     8.02495 +/- 0.13
e   0.1112273 +/- 0.0013            Incl.   20.63833 +/- 0.14
P   2.54/927.22d           H 20.0   G  0.15   U  8.2  
q 1.65393987 +/- 0.00134    Q 2.06791145 +/- 0.00631
From 10 observations 2020 Sept. 12-18; mean residual 0".05
Residuals in arcseconds: 
200912 F51  .03+  .06+    200914 F51  .03+  .07+    200918 F51  .05-  .09-    
200912 F51  .11-  .06-    200914 F51  .01+  .03+    200918 F51  .06+  .04+    
200912 F51  .08+  .00     200914 F51  .03-  .08-    
200914 F51  .01-  .02-    200918 F51  .01-  .05+    

Ephemerides (geocentric):
Date (UTC) HH   RA              Dec         delta   r     elong  mag " sig PA
---- -- -- --  -------------   -----------  ------ ------ -----  --- ---- ---
2020 09 19 00  23 03 31.426   -22 06 53.55  1.0294 1.9929 156.9 22.3 .239  20
2020 09 19 01  23 03 27.344   -22 06 35.66  1.0295 1.9928 156.9 22.3 .250  20
2020 09 19 02  23 03 23.264   -22 06 17.74  1.0296 1.9928 156.8 22.3 .261  20
2020 09 19 03  23 03 19.186   -22 05 59.78  1.0297 1.9927 156.8 22.3 .273  21
2020 09 19 04  23 03 15.110   -22 05 41.78  1.0298 1.9927 156.8 22.3 .285  21
2020 09 19 05  23 03 11.037   -22 05 23.76  1.0299 1.9927 156.7 22.3 .297  21
2020 09 19 06  23 03 06.966   -22 05 05.69  1.0299 1.9926 156.7 22.3 .309  21
2020 09 19 07  23 03 02.897   -22 04 47.60  1.0300 1.9926 156.7 22.3 .321  21
2020 09 19 08  23 02 58.830   -22 04 29.47  1.0301 1.9925 156.6 22.3 .334  22
2020 09 19 09  23 02 54.766   -22 04 11.30  1.0302 1.9925 156.6 22.3 .346  22
2020 09 19 10  23 02 50.704   -22 03 53.11  1.0303 1.9924 156.6 22.3 .359  22
2020 09 19 11  23 02 46.645   -22 03 34.87  1.0304 1.9924 156.5 22.3 .372  22
2020 09 19 12  23 02 42.587   -22 03 16.61  1.0305 1.9924 156.5 22.3 .385  22
2020 09 19 13  23 02 38.532   -22 02 58.31  1.0306 1.9923 156.5 22.3 .398  23
2020 09 19 14  23 02 34.480   -22 02 39.98  1.0307 1.9923 156.4 22.3 .412  23
2020 09 19 15  23 02 30.429   -22 02 21.61  1.0308 1.9922 156.4 22.3 .425  23
2020 09 19 16  23 02 26.381   -22 02 03.21  1.0309 1.9922 156.4 22.3 .439  23
2020 09 19 17  23 02 22.336   -22 01 44.77  1.0310 1.9921 156.3 22.3 .453  23
2020 09 19 18  23 02 18.293   -22 01 26.30  1.0311 1.9921 156.3 22.3 .467  23
2020 09 19 19  23 02 14.252   -22 01 07.80  1.0312 1.9921 156.3 22.3 .481  23
2020 09 19 20  23 02 10.214   -22 00 49.27  1.0313 1.9920 156.2 22.3 .495  24
2020 09 19 21  23 02 06.178   -22 00 30.70  1.0314 1.9920 156.2 22.3 .510  24
2020 09 19 22  23 02 02.144   -22 00 12.09  1.0315 1.9919 156.2 22.3 .524  24
2020 09 19 23  23 01 58.113   -21 59 53.46  1.0316 1.9919 156.1 22.3 .539  24
2020 09 20 00  23 01 54.084   -21 59 34.78  1.0317 1.9919 156.1 22.3 .554  24
2020 09 20 01  23 01 50.058   -21 59 16.08  1.0318 1.9918 156.0 22.3 .569  24
2020 09 20 02  23 01 46.034   -21 58 57.34  1.0319 1.9918 156.0 22.3 .584  24
2020 09 20 03  23 01 42.013   -21 58 38.57  1.0320 1.9917 156.0 22.3 .599  24
2020 09 20 04  23 01 37.994   -21 58 19.76  1.0321 1.9917 155.9 22.3 .615  25
2020 09 20 05  23 01 33.978   -21 58 00.93  1.0322 1.9916 155.9 22.3 .631  25
2020 09 20 06  23 01 29.964   -21 57 42.05  1.0323 1.9916 155.9 22.3 .646  25
2020 09 20 07  23 01 25.953   -21 57 23.15  1.0324 1.9916 155.8 22.3 .662  25
2020 09 20 08  23 01 21.944   -21 57 04.21  1.0325 1.9915 155.8 22.3 .679  25
2020 09 20 09  23 01 17.938   -21 56 45.23  1.0326 1.9915 155.8 22.3 .695  25
2020 09 20 10  23 01 13.934   -21 56 26.23  1.0327 1.9914 155.7 22.3 .711  25
2020 09 20 11  23 01 09.933   -21 56 07.19  1.0329 1.9914 155.7 22.3 .728  25
2020 09 20 12  23 01 05.934   -21 55 48.12  1.0330 1.9913 155.7 22.3 .745  25
2020 09 20 13  23 01 01.938   -21 55 29.01  1.0331 1.9913 155.6 22.3 .762  26
2020 09 20 14  23 00 57.944   -21 55 09.87  1.0332 1.9913 155.6 22.3 .779  26
2020 09 20 15  23 00 53.953   -21 54 50.70  1.0333 1.9912 155.5 22.3 .796  26
2020 09 20 16  23 00 49.965   -21 54 31.49  1.0334 1.9912 155.5 22.3 .813  26
2020 09 20 17  23 00 45.979   -21 54 12.25  1.0335 1.9911 155.5 22.3 .831  26
2020 09 20 18  23 00 41.996   -21 53 52.98  1.0336 1.9911 155.4 22.3 .849  26
2020 09 20 19  23 00 38.015   -21 53 33.67  1.0337 1.9910 155.4 22.3 .867  26
2020 09 20 20  23 00 34.037   -21 53 14.33  1.0338 1.9910 155.4 22.3 .885  26
2020 09 20 21  23 00 30.062   -21 52 54.96  1.0339 1.9910 155.3 22.3 .903  26
2020 09 20 22  23 00 26.089   -21 52 35.55  1.0341 1.9909 155.3 22.3 .921  26
2020 09 20 23  23 00 22.119   -21 52 16.12  1.0342 1.9909 155.3 22.3 .940  26